Date Time,Air Temp,Sky Temp,Clarity,Light Level,Rain Sensor,Readings
2010-11-22 00:01:24,17.7,-12.8,30.5,1.1,2.3,112
2010-11-22 00:06:24,17.8,-8.9,26.7,1.2,2.3,111
2010-11-22 00:11:24,17.9,-11.0,28.8,1.3,2.3,112
2010-11-22 00:16:24,17.9,-8.1,26.0,1.1,2.3,112
2010-11-22 00:21:24,18.0,-4.9,22.9,1.1,2.3,111
2010-11-22 00:26:24,18.1,-6.2,24.4,1.2,2.3,112
2010-11-22 00:31:24,18.0,-10.7,28.7,1.0,2.2,112
2010-11-22 00:36:24,17.9,-12.5,30.4,1.2,2.2,111
2010-11-22 00:41:24,17.8,-13.2,31.0,1.7,2.3,111
2010-11-22 00:46:24,17.7,-15.6,33.3,1.7,2.3,112
2010-11-22 00:51:24,17.7,-17.1,34.7,1.6,2.3,112
2010-11-22 00:56:24,17.7,-17.1,34.9,1.5,2.3,111
2010-11-22 01:01:24,17.8,-14.2,31.9,1.4,2.3,112
2010-11-22 01:06:24,17.8,-7.0,24.8,1.0,2.3,111
2010-11-22 01:11:24,16.6,-1.7,18.3,0.9,2.3,112
2010-11-22 01:16:24,14.4,-3.7,18.1,1.1,2.3,112
2010-11-22 01:21:24,13.9,-3.3,17.2,1.0,2.3,112
2010-11-22 01:26:24,13.6,-1.1,14.7,1.0,2.3,111
2010-11-22 01:31:24,13.5,0.1,13.4,0.8,2.4,112
2010-11-22 01:36:24,13.6,-4.4,17.9,1.2,2.4,112
2010-11-22 01:41:24,16.4,-5.9,22.2,1.2,2.3,111
2010-11-22 01:46:24,16.3,-1.9,18.2,0.9,2.3,112
2010-11-22 01:51:24,14.2,-0.3,14.6,0.8,2.3,111
2010-11-22 01:56:24,13.7,0.7,13.0,0.6,2.3,112
2010-11-22 02:01:24,13.6,1.4,12.2,0.3,2.4,111
2010-11-22 02:06:24,13.5,0.8,12.7,0.4,2.4,111
2010-11-22 02:11:24,13.5,1.3,12.2,0.5,2.4,111
2010-11-22 02:16:24,13.5,1.3,12.2,0.4,2.4,111
2010-11-22 02:21:24,13.5,-0.4,13.9,0.5,2.4,111
2010-11-22 02:26:24,14.7,-5.5,20.3,0.9,2.3,111
2010-11-22 02:31:24,15.3,-2.6,17.9,0.7,2.3,112
2010-11-22 02:36:24,13.9,-2.7,16.6,0.6,2.3,112
2010-11-22 02:41:24,15.1,-9.2,24.3,1.0,2.3,112
2010-11-22 02:46:24,17.2,-12.0,29.2,0.9,2.3,111
2010-11-22 02:51:24,17.8,-12.7,30.4,1.0,2.3,112
2010-11-22 02:56:24,17.9,-10.4,28.3,1.1,2.3,111
2010-11-22 03:01:24,18.1,-7.1,25.2,0.8,2.3,112
2010-11-22 03:06:24,18.2,-5.6,23.8,0.7,2.3,111
2010-11-22 03:11:24,18.2,-5.8,24.1,0.7,2.3,112
2010-11-22 03:16:24,18.3,-4.5,22.8,0.7,2.3,111
2010-11-22 03:21:24,18.3,-3.9,22.2,0.6,2.3,112
2010-11-22 03:26:24,18.4,-3.3,21.7,0.5,2.3,112
2010-11-22 03:31:24,18.4,-3.7,22.2,0.5,2.3,111
2010-11-22 03:36:24,18.4,-4.0,22.5,0.5,2.3,112
2010-11-22 03:41:24,18.4,-4.5,22.9,0.5,2.3,112
2010-11-22 03:46:24,18.4,-4.7,23.1,0.5,2.3,112
2010-11-22 03:51:24,18.1,-4.4,22.5,0.6,2.3,112
2010-11-22 03:56:24,18.3,-4.9,23.3,0.6,2.3,111
2010-11-22 04:01:24,18.3,-5.4,23.7,0.6,2.3,111
2010-11-22 04:06:24,18.4,-5.5,23.9,0.6,2.3,112
2010-11-22 04:11:24,18.3,-5.7,24.0,0.6,2.3,111
2010-11-22 04:16:24,18.4,-6.8,25.1,0.6,2.3,112
2010-11-22 04:21:24,18.3,-7.9,26.3,0.6,2.3,112
2010-11-22 04:26:24,18.3,-9.4,27.7,0.6,2.3,112
2010-11-22 04:31:24,18.2,-10.4,28.6,0.8,2.2,111
2010-11-22 04:36:24,18.1,-12.4,30.5,0.7,2.3,111
2010-11-22 04:41:24,18.1,-12.8,30.9,0.6,2.3,112
2010-11-22 04:46:24,18.1,-13.9,32.0,0.6,2.3,112
2010-11-22 04:51:24,18.1,-13.3,31.4,0.8,2.3,111
2010-11-22 04:56:24,18.1,-14.1,32.2,0.8,2.3,112
2010-11-22 05:01:24,18.0,-14.2,32.2,1.0,2.3,112
2010-11-22 05:06:24,18.0,-14.0,32.0,1.2,2.3,111
2010-11-22 05:11:24,18.0,-15.1,33.1,1.1,2.3,112
2010-11-22 05:16:24,17.9,-17.2,35.2,1.0,2.3,111
2010-11-22 05:21:24,17.9,-18.4,36.3,1.0,2.3,112
2010-11-22 05:26:24,18.0,-18.2,36.1,0.9,2.3,111
2010-11-22 05:31:24,18.0,-19.7,37.6,0.9,2.3,112
2010-11-22 05:36:24,17.9,-20.2,38.1,0.8,2.3,112
2010-11-22 05:41:24,17.9,-20.2,38.1,0.8,2.3,111
2010-11-22 05:46:24,18.0,-19.5,37.5,0.8,2.3,112
2010-11-22 05:51:24,18.0,-15.0,33.0,0.4,2.3,112
2010-11-22 05:56:24,18.0,-9.7,27.7,0.4,2.3,111
2010-11-22 06:01:24,18.1,-6.3,24.5,0.3,2.3,112
2010-11-22 06:06:24,18.3,-4.8,23.1,0.3,2.3,112
2010-11-22 06:11:24,18.5,-4.1,22.5,0.2,2.3,112
2010-11-22 06:16:24,18.5,-3.7,22.2,0.2,2.3,111
2010-11-22 06:21:24,18.6,-3.8,22.3,0.2,2.3,112
2010-11-22 06:26:24,18.7,-3.7,22.4,0.2,2.3,112
2010-11-22 06:31:24,18.7,-4.5,23.2,0.3,2.3,112
2010-11-22 06:36:24,18.6,-5.2,23.8,0.4,2.3,111
2010-11-22 06:41:24,18.5,-5.7,24.2,0.7,2.3,112
2010-11-22 06:46:24,18.5,-6.0,24.5,1.3,2.3,111
2010-11-22 06:51:24,18.6,-5.5,24.1,2.5,2.3,112
2010-11-22 06:56:24,18.6,-5.7,24.4,4.6,2.3,111
2010-11-22 07:01:24,18.6,-5.9,24.5,8.1,2.3,112
2010-11-22 07:06:24,18.5,-5.5,23.9,12.9,2.3,111
2010-11-22 07:11:24,18.4,-5.8,24.2,18.4,2.3,112
2010-11-22 07:16:24,18.4,-6.9,25.3,23.3,2.3,112
2010-11-22 07:21:24,18.3,-8.2,26.5,26.5,2.3,112
2010-11-22 07:26:24,18.4,-8.7,27.1,28.4,2.3,112
2010-11-22 07:31:24,18.4,-9.7,28.2,29.6,2.3,112
2010-11-22 07:36:24,18.4,-10.5,28.9,30.4,2.3,111
2010-11-22 07:41:24,18.2,-12.8,31.0,30.9,2.3,112
2010-11-22 07:46:24,18.1,-17.5,35.6,31.2,2.3,111
2010-11-22 07:51:24,18.0,-19.8,37.9,31.5,2.3,112
2010-11-22 07:56:24,18.0,-20.5,38.5,31.8,2.3,111
2010-11-22 08:01:24,18.0,-20.1,38.1,31.9,2.3,112
2010-11-22 08:06:24,18.0,-15.1,33.1,32.0,2.3,112
2010-11-22 08:11:24,18.1,-6.7,24.8,32.1,2.3,112
2010-11-22 08:16:24,18.3,-9.4,27.8,32.2,2.3,111
2010-11-22 08:21:24,18.4,-14.9,33.3,32.3,2.3,112
2010-11-22 08:26:24,18.4,-13.8,32.2,32.3,2.3,111
2010-11-22 08:31:24,18.5,-5.5,24.0,32.3,2.3,112
2010-11-22 08:36:24,16.2,-1.6,17.8,32.2,2.3,112
2010-11-22 08:41:24,17.3,-7.8,25.0,32.3,2.3,111
2010-11-22 08:46:24,18.5,-8.7,27.2,32.4,2.3,112
2010-11-22 08:51:24,18.8,-14.2,33.0,32.4,2.3,111
2010-11-22 08:56:24,18.4,-16.5,35.0,32.4,2.3,112
2010-11-22 09:01:24,18.7,-16.0,34.7,32.4,2.3,111
2010-11-22 09:06:24,18.8,-13.9,32.7,32.4,2.3,112
2010-11-22 09:11:25,18.9,-14.6,33.5,32.5,2.3,111
2010-11-22 09:16:25,19.0,-16.0,35.0,32.4,2.3,112
2010-11-22 09:21:25,19.0,-10.4,29.4,32.4,2.3,111
2010-11-22 09:26:25,19.1,-10.0,29.1,32.4,2.3,112
2010-11-22 09:31:25,19.2,-4.8,24.0,32.4,2.3,111
2010-11-22 09:36:25,19.3,-7.0,26.3,32.4,2.2,112
2010-11-22 09:41:25,19.3,-11.6,30.8,32.4,2.2,111
2010-11-22 09:46:25,19.4,-17.0,36.4,32.5,2.2,112
2010-11-22 09:51:25,19.4,-19.1,38.5,32.5,2.1,112
2010-11-22 09:56:25,19.4,-18.7,38.1,32.5,2.2,112
2010-11-22 10:01:25,19.5,-16.1,35.6,32.5,2.1,111
2010-11-22 10:06:25,19.7,-11.5,31.2,32.5,2.3,111
2010-11-22 10:11:25,19.9,-8.9,28.8,32.5,2.3,112
2010-11-22 10:16:25,20.3,-6.2,26.5,32.5,2.4,111
2010-11-22 10:21:25,20.7,-7.9,28.6,32.5,2.3,112
2010-11-22 10:26:25,20.7,-10.5,31.2,32.5,2.3,111
2010-11-22 10:31:25,20.6,-15.6,36.2,32.5,2.3,112
2010-11-22 10:36:25,20.3,-11.7,32.0,32.5,2.4,111
2010-11-22 10:41:25,20.4,-5.4,25.9,32.5,2.3,112
2010-11-22 10:46:25,21.1,-9.6,30.7,32.6,2.3,111
2010-11-22 10:51:25,22.1,-11.0,33.1,32.6,2.1,112
2010-11-22 10:56:25,22.6,-13.2,35.8,32.6,2.1,111
2010-11-22 11:01:25,22.6,-16.5,39.0,32.6,2.2,112
2010-11-22 11:06:25,22.4,-17.3,39.7,32.6,2.1,111
2010-11-22 11:11:25,22.3,-15.6,37.9,32.6,2.0,112
2010-11-22 11:16:25,22.6,-13.9,36.4,32.6,2.2,111
2010-11-22 11:21:25,22.8,-14.4,37.2,32.6,2.3,112
2010-11-22 11:26:25,23.0,-15.0,38.0,32.6,2.3,112
2010-11-22 11:31:25,23.3,-14.9,38.2,32.6,2.4,111
2010-11-22 11:36:25,23.4,-12.4,35.8,32.6,2.6,111
2010-11-22 11:41:25,23.2,-14.0,37.2,32.6,2.5,112
2010-11-22 11:46:25,22.7,-10.5,33.2,32.5,2.4,112
2010-11-22 11:51:25,22.1,-7.4,29.5,32.5,2.2,111
2010-11-22 11:56:25,21.6,-10.1,31.7,32.5,1.9,112
2010-11-22 12:01:25,21.8,-7.0,28.8,32.6,1.9,112
2010-11-22 12:06:25,21.9,-9.0,30.9,32.5,2.0,112
2010-11-22 12:11:25,21.4,-15.9,37.2,32.5,2.1,111
2010-11-22 12:16:25,21.1,-13.6,34.7,32.6,2.3,112
2010-11-22 12:21:25,21.3,-8.6,29.8,32.5,2.3,111
2010-11-22 12:26:25,21.2,-9.9,31.1,32.5,2.3,112
2010-11-22 12:31:25,21.3,-5.7,26.9,32.6,2.3,112
2010-11-22 12:36:25,21.4,-5.0,26.4,32.5,2.2,112
2010-11-22 12:41:25,21.2,-7.7,28.9,32.5,2.3,111
2010-11-22 12:46:25,21.1,-6.9,28.0,32.5,2.3,111
2010-11-22 12:51:25,21.0,-4.2,25.1,32.5,2.3,112
2010-11-22 12:56:25,20.8,-4.6,25.4,32.4,2.3,111
2010-11-22 13:01:25,20.6,-6.4,27.1,32.4,2.3,112
2010-11-22 13:06:25,20.4,-10.0,30.4,32.4,2.3,112
2010-11-22 13:11:25,20.3,-5.8,26.0,32.5,2.3,112
2010-11-22 13:16:25,20.3,-11.1,31.4,32.5,2.3,111
2010-11-22 13:21:25,20.5,-5.7,26.3,32.5,2.3,112
2010-11-22 13:26:25,21.0,-3.8,24.9,32.5,2.3,112
2010-11-22 13:31:25,21.3,-3.1,24.3,32.5,2.3,111
2010-11-22 13:36:25,21.3,-4.8,26.0,32.5,2.3,112
2010-11-22 13:41:25,21.5,-0.2,21.7,32.5,2.2,111
2010-11-22 13:46:25,21.5,-8.2,29.7,32.5,1.9,112
2010-11-22 13:51:25,21.2,-13.4,34.6,32.5,2.2,111
2010-11-22 13:56:25,21.1,-11.9,33.1,32.6,2.3,112
2010-11-22 14:01:25,21.5,-11.2,32.7,32.5,2.2,112
2010-11-22 14:06:25,21.2,-15.0,36.2,32.5,2.2,111
2010-11-22 14:11:25,21.1,-13.3,34.4,32.6,2.3,111
2010-11-22 14:16:25,21.4,-9.0,30.3,32.6,2.1,112
2010-11-22 14:21:25,21.3,-13.8,35.0,32.5,2.0,112
2010-11-22 14:26:25,20.9,-14.1,35.0,32.5,2.3,111
2010-11-22 14:31:25,20.6,-16.8,37.5,32.5,2.3,112
2010-11-22 14:36:25,20.4,-16.6,37.0,32.5,2.3,112
2010-11-22 14:41:25,20.4,-16.4,36.7,32.5,2.3,111
2010-11-22 14:46:25,20.6,-14.2,34.7,32.6,2.3,112
2010-11-22 14:51:25,20.6,-13.7,34.2,32.5,2.3,112
2010-11-22 14:56:25,20.8,-10.8,31.6,32.5,2.3,112
2010-11-22 15:01:25,20.8,-9.1,29.9,32.4,2.3,111
2010-11-22 15:06:25,20.5,-7.3,27.8,32.4,2.3,112
2010-11-22 15:11:25,20.3,-6.6,26.9,32.4,2.3,111
2010-11-22 15:16:25,20.2,-4.9,25.1,32.4,2.3,112
2010-11-22 15:21:25,20.1,-4.6,24.6,32.3,2.3,112
2010-11-22 15:26:25,19.9,-6.7,26.7,32.3,2.3,111
2010-11-22 15:31:25,19.9,-4.9,24.8,32.3,2.3,112
2010-11-22 15:36:25,19.9,-3.3,23.1,32.2,2.3,112
2010-11-22 15:41:25,19.8,-2.4,22.3,32.1,2.3,111
2010-11-22 15:46:25,19.7,-2.2,22.0,32.0,2.3,112
2010-11-22 15:51:25,19.6,-1.9,21.5,31.6,2.4,111
2010-11-22 15:56:25,19.4,-2.1,21.6,31.4,2.5,112
2010-11-22 16:01:25,19.4,-3.2,22.6,31.2,2.3,111
2010-11-22 16:06:25,19.3,-3.4,22.8,30.9,2.3,112
2010-11-22 16:11:25,19.3,-2.4,21.7,29.9,2.3,112
2010-11-22 16:16:25,19.3,-2.6,22.0,28.7,2.3,111
2010-11-22 16:21:25,19.3,-2.5,21.8,26.9,2.3,112
2010-11-22 16:26:25,19.2,-3.0,22.2,24.6,2.3,112
2010-11-22 16:31:25,19.2,-2.0,21.3,20.3,2.3,111
2010-11-22 16:36:25,19.3,-1.7,21.0,15.2,2.3,112
2010-11-22 16:41:25,17.6,-0.2,17.8,9.1,2.3,112
2010-11-22 16:46:25,15.3,0.1,15.3,5.1,2.3,112
2010-11-22 16:51:25,14.7,0.2,14.5,2.6,2.3,111
2010-11-22 16:56:25,14.5,0.4,14.1,1.4,2.3,111
2010-11-22 17:01:25,14.4,-1.5,15.9,0.9,2.3,112
2010-11-22 17:06:25,14.3,-2.1,16.4,0.6,2.3,112
2010-11-22 17:11:25,14.3,-2.6,16.9,0.4,2.3,111
2010-11-22 17:16:25,14.2,-2.8,17.1,0.3,2.3,112
2010-11-22 17:21:25,14.2,-3.0,17.2,0.2,2.3,112
2010-11-22 17:26:25,14.1,-3.1,17.2,0.2,2.3,112
2010-11-22 17:31:25,14.1,-2.9,17.1,0.2,2.3,112
2010-11-22 17:36:25,14.1,-2.0,16.1,0.2,2.3,112
2010-11-22 17:41:25,14.1,0.0,14.1,0.2,2.3,111
2010-11-22 17:46:25,13.9,0.5,13.4,0.2,2.3,112
2010-11-22 17:51:25,14.2,-0.5,14.6,0.2,2.3,112
2010-11-22 17:56:25,14.2,-1.6,15.8,0.2,2.3,111
2010-11-22 18:01:25,14.1,-2.3,16.5,0.2,2.3,112
2010-11-22 18:06:25,14.4,-2.8,17.1,0.2,2.3,112
2010-11-22 18:11:25,14.1,-3.0,17.1,0.3,2.3,112
2010-11-22 18:16:25,14.0,-3.2,17.2,0.3,2.3,112
2010-11-22 18:21:25,14.0,-3.3,17.2,0.3,2.3,112
2010-11-22 18:26:25,13.9,-3.4,17.3,0.3,2.3,112
2010-11-22 18:31:25,13.9,-3.4,17.3,0.3,2.3,112
2010-11-22 18:36:25,13.8,-3.4,17.3,0.3,2.3,111
2010-11-22 18:41:25,14.1,-3.5,17.6,0.3,2.3,112
2010-11-22 18:46:25,13.8,-3.5,17.3,0.3,2.3,112
2010-11-22 18:51:25,13.8,-3.5,17.2,0.3,2.3,111
2010-11-22 18:56:25,13.8,-3.7,17.4,0.3,2.3,112
2010-11-22 19:01:25,13.7,-3.6,17.3,0.3,2.3,111
2010-11-22 19:06:25,13.7,-3.7,17.4,0.3,2.3,112
2010-11-22 19:11:25,13.4,-3.7,17.1,0.3,2.3,111
2010-11-22 19:16:25,13.7,-3.5,17.2,0.3,2.3,112
2010-11-22 19:21:25,13.6,-3.6,17.3,0.4,2.3,111
2010-11-22 19:26:25,13.6,-3.6,17.2,0.3,2.3,112
2010-11-22 19:31:25,13.6,-3.6,17.2,0.3,2.3,111
2010-11-22 19:36:25,13.6,-3.2,16.8,0.4,2.3,112
2010-11-22 19:41:25,13.7,-3.3,17.0,0.4,2.3,112
2010-11-22 19:46:25,13.7,-3.3,17.0,0.4,2.3,112
2010-11-22 19:51:25,13.7,-3.4,17.1,0.4,2.3,112
2010-11-22 19:56:25,13.7,-3.3,16.9,0.4,2.3,112
2010-11-22 20:01:25,13.6,-3.3,16.9,0.4,2.3,112
2010-11-22 20:06:25,13.6,-3.3,16.9,0.4,2.3,111
2010-11-22 20:11:25,13.6,-3.4,17.0,0.4,2.3,112
2010-11-22 20:16:25,13.6,-3.1,16.7,0.4,2.3,112
2010-11-22 20:21:25,13.6,-3.3,16.9,0.4,2.3,112
2010-11-22 20:26:25,13.6,-3.2,16.8,0.4,2.3,112
2010-11-22 20:31:25,13.6,-2.9,16.5,0.4,2.3,112
2010-11-22 20:36:25,13.6,-3.3,16.9,0.4,2.3,112
2010-11-22 20:41:25,13.6,-3.5,17.1,0.4,2.3,112
2010-11-22 20:46:25,13.7,-3.6,17.2,0.4,2.3,112
2010-11-22 20:51:25,13.7,-3.7,17.4,0.4,2.3,111
2010-11-22 20:56:25,13.7,-3.5,17.2,0.4,2.3,112
2010-11-22 21:01:25,13.7,-3.6,17.3,0.4,2.3,112
2010-11-22 21:06:25,13.7,-3.4,17.1,0.4,2.3,111
2010-11-22 21:11:25,13.7,-3.4,17.0,0.4,2.3,112
2010-11-22 21:16:25,13.7,-3.5,17.2,0.4,2.3,111
2010-11-22 21:21:25,13.6,-3.3,17.0,0.4,2.3,112
2010-11-22 21:26:25,13.6,-3.0,16.6,0.4,2.3,112
2010-11-22 21:31:25,13.6,-3.7,17.3,0.4,2.3,111
2010-11-22 21:36:25,13.6,-3.8,17.3,0.4,2.3,112
2010-11-22 21:41:25,13.6,-3.9,17.4,0.4,2.3,112
2010-11-22 21:46:25,13.5,-4.0,17.5,0.5,2.3,112
2010-11-22 21:51:25,13.5,-4.2,17.7,0.5,2.3,112
2010-11-22 21:56:25,13.5,-5.2,18.7,0.6,2.3,111
2010-11-22 22:01:25,13.8,-6.2,20.0,0.6,2.3,112
2010-11-22 22:06:25,16.5,-6.2,22.7,0.5,2.3,112
2010-11-22 22:11:25,17.6,-8.1,25.8,0.5,2.3,112
2010-11-22 22:16:25,18.0,-8.3,26.3,0.6,2.3,112
2010-11-22 22:21:25,18.2,-9.4,27.6,0.7,2.3,112
2010-11-22 22:26:25,18.1,-12.0,30.1,0.6,2.3,111
2010-11-22 22:31:25,18.1,-14.6,32.6,0.7,2.3,111
2010-11-22 22:36:25,18.0,-13.6,31.5,0.7,2.3,112
2010-11-22 22:41:25,18.0,-13.4,31.5,0.8,2.3,112
2010-11-22 22:46:25,18.1,-13.7,31.7,0.8,2.3,111
2010-11-22 22:51:25,18.1,-13.5,31.6,0.9,2.3,112
2010-11-22 22:56:25,18.1,-14.1,32.2,0.9,2.3,111
2010-11-22 23:01:25,18.1,-14.1,32.2,0.9,2.3,112
2010-11-22 23:06:25,18.1,-16.0,34.1,0.8,2.3,111
2010-11-22 23:11:25,18.1,-17.7,35.7,0.8,2.3,112
2010-11-22 23:16:25,18.0,-18.4,36.5,0.8,2.3,111
2010-11-22 23:21:25,17.9,-18.7,36.6,0.8,2.3,112
2010-11-22 23:26:25,17.9,-18.5,36.4,0.9,2.3,112
2010-11-22 23:31:25,17.9,-18.7,36.6,0.9,2.3,111
2010-11-22 23:36:25,17.8,-18.7,36.6,0.9,2.3,112
2010-11-22 23:41:25,17.8,-18.2,36.0,0.9,2.3,112
2010-11-22 23:46:25,17.8,-14.9,32.7,0.9,2.3,112
2010-11-22 23:51:25,17.9,-15.5,33.4,0.9,2.3,111
2010-11-22 23:56:25,17.9,-19.3,37.2,0.9,2.3,112
